Location: Alphen
(52.1351°N, 4.6549°E)
Time: 02:07:31
(UTC+00:00)

deb Chang Zheng 4 - Pass Details

Date: 27 January 2021
Orbit: 599 x 623 km, 98.6° (Epoch: 26 February)

Event Time Altitude Azimuth Distance (km) Brightness Sun altitude
Rises 05:42:06 0° 11° (N) 2,876 7.0 -16.2°
Reaches altitude 10° 05:44:20 10° 6° (N) 1,964 6.1 -15.9°
Maximum altitude 05:48:26 49° 292° (WNW) 789 3.7 -15.3°
Drops below altitude 10° 05:52:29 10° 218° (SW) 1,941 5.8 -14.7°
Sets 05:54:41 0° 213° (SSW) 2,839 6.7 -14.3°
